Weather History for Winfield, KS

Change the Weather History Date:

Saturday, May 12, 2012

  Actual Average Record
Temperature  
Mean Temperature 64 °F -  
Max Temperature 73 °F 75 °F 86 °F (2004)
Min Temperature 55 °F 53 °F 39 °F (2013)
Degree Days  
Heating Degree Days 2    
Growing Degree Days 14 (Base 50)    
Moisture  
Dew Point 52 °F    
Average Humidity 70    
Maximum Humidity 96    
Minimum Humidity 53    
Precipitation  
Precipitation 0.00 in - - ()
Sea Level Pressure  
Sea Level Pressure 30.20 in    
Wind  
Wind Speed 8 mph (NNE)    
Max Wind Speed 12 mph    
Max Gust Speed 17 mph    
Visibility 10 miles    
Events      
Averages and records for this station are not official NWS values.
T = Trace of Precipitation, MM = Missing Value Source: NWS Daily Summary

Daily Weather History Graph

Daily Weather History Graph

Search for Another Location

Airport:

Trip Planner

Search our weather history database for the weather conditions in past years. The results will help you decide how hot, cold, wet, or windy it might be!

Date:

Astronomy

May. 12, 2012 Rise Set
Actual Time 6:21 AM CDT 8:27 PM CDT
Civil Twilight 5:52 AM CDT 8:56 PM CDT
Nautical Twilight 5:17 AM CDT 9:31 PM CDT
Astronomical Twilight 4:39 AM CDT 10:10 PM CDT
Moon 1:45 AM CDT (5/12) 12:58 PM CDT (5/12)
Length of Visible Light 15h 03m
Length of Day
14h 05m
Waning Gibbous, 52% of the Moon is Illuminated
May 12
Waning Gibbous
May 12
Last Quarter
May 20
New
May 28
First Quarter
Jun 4
Full

Hourly Weather History & Observations

Time (CDT) Temp. Dew Point Humidity Pressure Visibility Wind Dir Wind Speed Gust Speed Precip Events Conditions
12:54 AM 62.1 °F 53.1 °F 72% 30.13 in 10.0 mi North 6.9 mph - N/A   Overcast
1:54 AM 63.0 °F 52.0 °F 67% 30.14 in 10.0 mi NNE 6.9 mph - N/A   Overcast
2:54 AM 62.1 °F 53.1 °F 72% 30.14 in 10.0 mi North 6.9 mph - N/A   Overcast
3:54 AM 62.1 °F 55.0 °F 78% 30.15 in 10.0 mi North 8.1 mph - N/A   Overcast
4:54 AM 62.1 °F 55.9 °F 80% 30.17 in 10.0 mi NNE 10.4 mph - N/A   Overcast
5:54 AM 60.1 °F 50.0 °F 69% 30.19 in 10.0 mi North 10.4 mph - N/A   Overcast
6:54 AM 59.0 °F 46.9 °F 64% 30.21 in 10.0 mi NNE 8.1 mph - N/A   Overcast
7:54 AM 57.0 °F 48.9 °F 74% 30.23 in 10.0 mi North 8.1 mph - N/A   Overcast
8:54 AM 60.1 °F 48.0 °F 64% 30.24 in 10.0 mi NNE 10.4 mph - N/A   Overcast
9:54 AM 63.0 °F 50.0 °F 63% 30.23 in 10.0 mi NNE 9.2 mph - N/A   Mostly Cloudy
10:54 AM 62.1 °F 50.0 °F 65% 30.24 in 10.0 mi North 9.2 mph - N/A   Overcast
11:54 AM 62.1 °F 50.0 °F 65% 30.25 in 10.0 mi North 9.2 mph - N/A   Overcast
12:54 PM 62.1 °F 51.1 °F 67% 30.25 in 10.0 mi North 9.2 mph - N/A   Overcast
2:54 PM 66.9 °F 53.1 °F 61% 30.21 in 10.0 mi North 10.4 mph - N/A   Overcast
4:54 PM 72.0 °F 54.0 °F 53% 30.17 in 10.0 mi NNE 9.2 mph 17.3 mph N/A   Mostly Cloudy
5:54 PM 72.0 °F 54.0 °F 53% 30.17 in 10.0 mi NNE 10.4 mph - N/A   Clear
6:54 PM 71.1 °F 55.0 °F 57% 30.17 in 10.0 mi NNE 11.5 mph - N/A   Clear
7:54 PM 66.9 °F 55.0 °F 66% 30.20 in 10.0 mi North 9.2 mph - N/A   Clear
8:54 PM 62.1 °F 54.0 °F 75% 30.21 in 10.0 mi North 5.8 mph - N/A   Clear
9:54 PM 57.9 °F 54.0 °F 87% 30.23 in 10.0 mi North 5.8 mph - N/A   Clear
10:54 PM 55.9 °F 54.0 °F 93% 30.25 in 10.0 mi North 5.8 mph - N/A   Clear
11:54 PM 55.0 °F 54.0 °F 96% 30.25 in 10.0 mi North 4.6 mph - N/A   Clear